Weather History for KAPY - January, 2013

Change the Weather History Date:

Saturday, January 19, 2013

  Actual Average (KLRD) Record (KLRD)
Temperature  
Mean Temperature 54 °F 57 °F  
Max Temperature 71 °F 67 °F 90 °F (1953)
Min Temperature 36 °F 46 °F 23 °F (1940)
Degree Days  
Heating Degree Days 12 9  
Month to date heating degree days 187  
Since 1 July heating degree days 577  
Cooling Degree Days 0 1  
Month to date cooling degree days 19  
Year to date cooling degree days 19  
Growing Degree Days 4 (Base 50)    
Moisture  
Dew Point 40 °F    
Average Humidity 60    
Maximum Humidity 91    
Minimum Humidity 31    
Precipitation  
Precipitation 0.00 in 0.03 in 0.98 in (1981)
Month to date precipitation 0.55  
Year to date precipitation 0.55  
Sea Level Pressure  
Sea Level Pressure 30.22 in    
Wind  
Wind Speed 3 mph (SSE)    
Max Wind Speed 12 mph    
Max Gust Speed 17 mph    
Visibility 10 miles    
Events      
T = Trace of Precipitation, MM = Missing Value Source: NWS Daily Summary

Daily Weather History Graph

Daily Weather History Graph

Search for Another Location

Airport or City:

Trip Planner

Search our weather history database for the weather conditions in past years. The results will help you decide how hot, cold, wet, or windy it might be!

Date:

Astronomy

Jan. 19, 2013 Rise Set
Actual Time 7:26 AM CST 6:08 PM CST
Civil Twilight 7:02 AM CST 6:33 PM CST
Nautical Twilight 6:33 AM CST 7:02 PM CST
Astronomical Twilight 6:05 AM CST 7:30 PM CST
Moon 12:30 PM CST (1/19) 1:10 AM CST (1/19)
Length of Visible Light 11h 31m
Length of Day
10h 42m
First Quarter, 57% of the Moon is Illuminated
Jan 19
First Quarter
Jan 26
Full
Feb 3
Last Quarter
Feb 10
New
Feb 17
First Quarter

Hourly Weather History & Observations

Time (CST) Temp. Windchill Dew Point Humidity Pressure Visibility Wind Dir Wind Speed Gust Speed Precip Events Conditions
12:15 AM 50.5 °F - 38.5 °F 63% 30.29 in 10.0 mi ESE 3.5 mph - N/A   Clear
12:35 AM 50.2 °F - 39.0 °F 66% 30.28 in 10.0 mi East 3.5 mph - N/A   Clear
12:55 AM 49.8 °F - 39.2 °F 67% 30.28 in 10.0 mi East 4.6 mph - N/A   Clear
1:15 AM 48.4 °F - 39.4 °F 71% 30.28 in 10.0 mi ESE 4.6 mph - N/A   Clear
1:35 AM 48.2 °F - 39.4 °F 72% 30.28 in 10.0 mi ESE 4.6 mph - N/A   Clear
1:55 AM 47.3 °F - 38.8 °F 72% 30.27 in 10.0 mi Calm Calm - N/A   Clear
2:15 AM 46.6 °F - 38.7 °F 74% 30.27 in 10.0 mi Calm Calm - N/A   Clear
2:35 AM 44.4 °F - 37.6 °F 77% 30.26 in 10.0 mi Calm Calm - N/A   Clear
2:55 AM 44.2 °F - 37.4 °F 77% 30.26 in 10.0 mi Calm Calm - N/A   Clear
3:15 AM 46.0 °F - 39.4 °F 78% 30.25 in 10.0 mi Calm Calm - N/A   Clear
3:35 AM 44.6 °F - 38.7 °F 80% 30.25 in 10.0 mi Calm Calm - N/A   Clear
3:55 AM 41.4 °F - 36.9 °F 84% 30.25 in 10.0 mi Calm Calm - N/A   Clear
4:15 AM 41.0 °F - 36.5 °F 84% 30.25 in 10.0 mi Calm Calm - N/A   Clear
4:35 AM 39.7 °F - 34.7 °F 82% 30.25 in 10.0 mi Calm Calm - N/A   Clear
4:55 AM 39.9 °F - 37.2 °F 90% 30.24 in 10.0 mi Calm Calm - N/A   Clear
5:15 AM 38.7 °F - 35.2 °F 87% 30.24 in 10.0 mi Calm Calm - N/A   Clear
5:35 AM 37.6 °F - 35.1 °F 91% 30.25 in 10.0 mi Calm Calm - N/A   Clear
5:55 AM 38.3 °F 35.9 °F 35.6 °F 90% 30.25 in 10.0 mi East 3.5 mph - N/A   Clear
7:15 AM 36.5 °F - 34.0 °F 91% 30.26 in 10.0 mi Calm Calm - N/A   Clear
7:55 AM 39.0 °F 36.8 °F 36.7 °F 91% 30.26 in 10.0 mi East 3.5 mph - N/A   Clear
8:15 AM 45.3 °F 43.0 °F 42.8 °F 91% 30.27 in 10.0 mi East 4.6 mph - N/A   Clear
8:35 AM 50.4 °F - 43.7 °F 78% 30.27 in 10.0 mi ESE 4.6 mph - N/A   Clear
9:35 AM 57.7 °F - 44.2 °F 61% 30.29 in 10.0 mi SE 4.6 mph - N/A   Clear
9:55 AM 60.1 °F - 44.8 °F 57% 30.29 in 10.0 mi SE 4.6 mph - N/A   Clear
10:15 AM 62.1 °F - 44.6 °F 53% 30.29 in 10.0 mi SE 6.9 mph - N/A   Clear
10:35 AM 61.9 °F - 45.0 °F 54% 30.29 in 10.0 mi SSE 9.2 mph - N/A   Clear
11:15 AM 65.3 °F - 43.9 °F 46% 30.28 in 10.0 mi SSE 11.5 mph - N/A   Clear
11:35 AM 65.8 °F - 43.3 °F 44% 30.27 in 10.0 mi SSE 10.4 mph - N/A   Clear
11:55 AM 67.3 °F - 42.1 °F 40% 30.26 in 10.0 mi SSE 10.4 mph 17.3 mph N/A   Clear
12:15 PM 68.7 °F - 40.6 °F 36% 30.25 in 10.0 mi South 10.4 mph - N/A   Clear
12:35 PM 69.6 °F - 40.8 °F 35% 30.23 in 10.0 mi SSE 10.4 mph - N/A   Clear
12:55 PM 69.4 °F - 40.6 °F 35% 30.21 in 10.0 mi South 8.1 mph - N/A   Clear
1:15 PM 69.8 °F - 41.7 °F 36% 30.20 in 10.0 mi South 9.2 mph - N/A   Clear
1:35 PM 70.5 °F - 42.3 °F 36% 30.18 in 10.0 mi SSW 8.1 mph - N/A   Clear
1:55 PM 69.6 °F - 42.6 °F 38% 30.18 in 10.0 mi South 6.9 mph - N/A   Clear
2:15 PM 70.9 °F - 42.6 °F 36% 30.17 in 10.0 mi South 5.8 mph - N/A   Clear
2:35 PM 70.9 °F - 41.9 °F 35% 30.16 in 10.0 mi South 4.6 mph - N/A   Clear
2:55 PM 71.1 °F - 41.7 °F 35% 30.15 in 10.0 mi South 3.5 mph - N/A   Clear
3:15 PM 71.8 °F - 40.6 °F 32% 30.14 in 10.0 mi South 6.9 mph - N/A   Clear
3:35 PM 71.8 °F - 40.6 °F 32% 30.14 in 10.0 mi SE 5.8 mph - N/A   Clear
3:55 PM 71.8 °F - 39.4 °F 31% 30.14 in 10.0 mi South 6.9 mph - N/A   Clear
4:15 PM 71.6 °F - 39.6 °F 31% 30.14 in 10.0 mi SSE 6.9 mph - N/A   Clear
4:35 PM 71.6 °F - 39.9 °F 32% 30.14 in 10.0 mi South 8.1 mph - N/A   Clear
4:55 PM 71.2 °F - 39.4 °F 31% 30.14 in 10.0 mi South 6.9 mph - N/A   Clear
5:15 PM 70.7 °F - 39.9 °F 33% 30.14 in 10.0 mi South 3.5 mph - N/A   Clear
5:35 PM 70.2 °F - 40.5 °F 34% 30.13 in 10.0 mi South 5.8 mph - N/A   Clear
5:55 PM 68.9 °F - 41.5 °F 37% 30.14 in 10.0 mi South 3.5 mph - N/A   Clear
6:15 PM 67.1 °F - 41.9 °F 40% 30.14 in 10.0 mi Calm Calm - N/A   Clear
6:35 PM 63.5 °F - 42.8 °F 47% 30.15 in 10.0 mi Calm Calm - N/A   Clear
6:55 PM 59.5 °F - 43.0 °F 54% 30.16 in 10.0 mi Calm Calm - N/A   Clear
7:15 PM 59.0 °F - 43.0 °F 55% 30.16 in 10.0 mi Calm Calm - N/A   Clear
7:35 PM 55.2 °F - 41.7 °F 60% 30.17 in 10.0 mi Calm Calm - N/A   Clear
7:55 PM 53.2 °F - 40.8 °F 63% 30.17 in 10.0 mi Calm Calm - N/A   Clear
8:15 PM 52.2 °F - 40.1 °F 64% 30.18 in 10.0 mi Calm Calm - N/A   Clear
8:35 PM 51.4 °F - 40.5 °F 66% 30.19 in 10.0 mi Calm Calm - N/A   Clear
8:55 PM 50.5 °F - 40.5 °F 68% 30.20 in 10.0 mi Calm Calm - N/A   Clear
9:15 PM 49.6 °F - 40.3 °F 70% 30.20 in 10.0 mi Calm Calm - N/A   Clear
9:35 PM 47.8 °F - 38.5 °F 70% 30.20 in 10.0 mi Calm Calm - N/A   Clear
9:55 PM 48.0 °F - 39.2 °F 72% 30.20 in 10.0 mi Calm Calm - N/A   Clear
10:15 PM 47.7 °F - 39.2 °F 72% 30.20 in 10.0 mi Calm Calm - N/A   Clear
10:35 PM 48.6 °F - 40.5 °F 74% 30.20 in 10.0 mi SE 3.5 mph - N/A   Clear
11:15 PM 54.0 °F - 45.5 °F 73% 30.21 in 10.0 mi ESE 4.6 mph - N/A   Clear
11:35 PM 54.0 °F - 45.9 °F 74% 30.21 in 10.0 mi ESE 5.8 mph - N/A   Clear
11:55 PM 54.7 °F - 46.8 °F 75% 30.20 in 10.0 mi SE 3.5 mph - N/A   Clear